User: anonymous   Login
Location: Unspecified
(0.0000°N, 0.0000°E)
Time: 00:43:40
(UTC+02:00)
Language:

Delta 2 Rocket - Orbit

View from above orbital plane
View from above orbital plane
View from above satellite
View from above satellite

Ground track
Ground track

The orbit data is extracted from the following two-line orbital elements,

1 20453U 90008B   16178.39307524  .00001071  00000-0  66157-4 0  9995
2 20453  35.6234 158.6417 0293487  91.8840 271.5506 14.81876338395376
Epoch (UTC): 26 June 2016 09:26:01
Eccentricity: 0.0293487
inclination: 35.6234°
perigee height: 418 km
apogee height: 829 km
right ascension of ascending node: 158.6417°
argument of perigee: 91.8840°
revolutions per day: 14.81876338
mean anomaly at epoch: 271.5506°
orbit number at epoch: 39537

The dashed part of the orbit path shows where the satellite is in the earth's shadow,  

DLR